Location: Recife
(8.0585°S, 34.8848°W)
Time: 11:02:22
(UTC-03:00)

Vanguard 2 - Pass Details

Date: 22 April 2026
Orbit: 554 x 2894 km, 32.9° (Epoch: 8 May)

Event Time Altitude Azimuth Distance (km) Brightness Sun altitude
Rises 05:12:48 0° 245° (WSW) 6,373 - -3.0°
Exits shadow 05:13:35 - 245° (WSW) 6,169 11.5 -2.8°
Reaches altitude 10° 05:17:41 10° 249° (WSW) 5,085 11.1 -1.8°
Maximum altitude 05:30:37 47° 318° (NW) 2,186 9.7 1.3°
Drops below altitude 10° 05:38:40 10° 30° (NNE) 3,219 11.4 3.3°
Sets 05:41:06 0° 37° (NE) 3,924 12.0 3.9°
